Home > Weather > Baar > Past weeks

Flag for Switzerland Past Weather in Baar, Zug, Switzerland — Yesterday and Last 2 Weeks

Now
71 °F

Mild.


Feels Like: 70 °F
Forecast: 62 / 89 °F
Wind: No wind

Location: Zuerich-Fluntern

Current Time: Aug 26, 2016 at 12:14:09 AM

Latest Report: Aug 25, 2016 at 11:00 PM


Visibility: N/A

Pressure: 30.02 "Hg

Humidity: 84%

Dew Point: 66 °F

Location of BaarLocation

Past Weather in Baar — Graph

°F

Baar Temperature Yesterday

Maximum temperature yesterday: 85 °F (at 5:00 PM)
Minimum temperature yesterday: 60 °F (at 7:00 AM)
Average temperature yesterday: 72 °F

High & Low Weather Summary for the Past Weeks

 TemperatureHumidityPressure
High85 °F (Aug 25, 5:00 PM)97% (Aug 18, 6:00 PM)30.39 "Hg (Aug 18, 6:00 PM)
Low49 °F (Aug 11, 7:00 AM)39% (Aug 22, 6:00 PM)29.80 "Hg (Aug 17, 6:00 PM)
Average66 °F74%30.11 "Hg
* Reported Aug 10 10:00 PM — Aug 25 10:00 PM, Baar, Weather by CustomWeather, © 2016

Note: Actual official high and low records may vary slightly from our data, if they occured in-between our weather recording intervals... More about our weather records

Advertising

Baar Weather History for the Previous 24 Hours

Scroll right to see more
 ConditionsComfort  
Time TempWeatherWind HumidityBarometerVisibility
10:00 PM
Thu, Aug 25
72 °FMild.2 mph81%30.01 "HgN/A
9:00 PM74 °FMild.3 mph76%30.00 "HgN/A
8:00 PM78 °FWarm.1 mph71%29.97 "HgN/A
7:00 PM83 °FWarm.3 mph56%29.95 "HgN/A
6:00 PM83 °FWarm.5 mph52%29.96 "HgN/A
5:00 PM85 °FWarm.3 mph48%29.97 "HgN/A
4:00 PM85 °FWarm.2 mph47%29.98 "HgN/A
3:00 PM84 °FWarm.5 mph53%29.99 "HgN/A
2:00 PM82 °FSunny.6 mph55%30.01 "HgN/A
1:00 PM80 °FWarm.5 mph63%30.03 "HgN/A
12:00 PM76 °FMild.2 mph68%30.05 "HgN/A
11:00 AM73 °FMild.2 mph73%30.07 "HgN/A
10:00 AM68 °FMild.1 mph77%30.09 "HgN/A
9:00 AM65 °FMild.1 mph83%30.11 "HgN/A
8:00 AM62 °FSunny.No wind89%30.12 "HgN/A
7:00 AM60 °FCool.3 mph92%30.11 "HgN/A
6:00 AM61 °FCool.2 mph91%30.10 "HgN/A
5:00 AM61 °FCool.2 mph89%30.10 "HgN/A
4:00 AM62 °FCool.2 mph88%30.10 "HgN/A
3:00 AM63 °FMild.6 mph86%30.09 "HgN/A
2:00 AM66 °FMild.6 mph80%30.09 "HgN/A
1:00 AM66 °FMild.7 mph80%30.09 "HgN/A
12:00 AM69 °FMild.9 mph74%30.10 "HgN/A
Weather by CustomWeather, © 2016

See weather overviewHow to use our weather pages